Home > Weather > Klosterneuburg > Past weeks

Flag for Austria Past Weather in Klosterneuburg, Lower Austria, Austria — Yesterday and Last 2 Weeks

Now
64 °F

Overcast.


Feels Like: 64 °F
Forecast: 58 / 69 °F
Wind: 1 mph from Northeast

Location: Wien / Hohe Warte

Current Time: May 31, 2016 at 12:18:42 AM

Latest Report: May 30, 2016 at 11:00 PM


Visibility: 25 mi

Pressure: 29.75 "Hg

Humidity: 75%

Dew Point: 56 °F

Location of KlosterneuburgLocation

Past Weather in Klosterneuburg — Graph

°F

Klosterneuburg Temperature Yesterday

Maximum temperature yesterday: 73 °F (at 11:00 AM)
Minimum temperature yesterday: 62 °F (at 6:00 AM)
Average temperature yesterday: 68 °F

High & Low Weather Summary for the Past Weeks

 TemperatureHumidityPressure
High81 °F (May 29, 4:00 PM)98% (May 29, 6:00 AM)30.13 "Hg (May 29, 6:00 AM)
Low44 °F (May 16, 4:00 AM)36% (May 18, 1:00 PM)29.61 "Hg (May 29, 7:00 PM)
Average62 °F67%29.91 "Hg
* Reported May 15 11:00 PM — May 30 11:00 PM, Klosterneuburg, Weather by CustomWeather, © 2016

Note: Actual official high and low records may vary slightly from our data, if they occured in-between our weather recording intervals... More about our weather records

Advertising

Klosterneuburg Weather History for the Previous 24 Hours

Scroll right to see more
 ConditionsComfort  
Time TempWeatherWind HumidityBarometerVisibility
11:00 PM
Mon, May 30
64 °FOvercast.1 mph75%29.75 "Hg25 mi
10:00 PM65 °FOvercast.2 mph72%29.75 "Hg25 mi
9:00 PM66 °FOvercast.1 mph67%29.74 "Hg31 mi
8:00 PM67 °FOvercast.3 mph62%29.73 "Hg31 mi
6:00 PM69 °FPartly sunny.3 mph69%29.73 "Hg31 mi
5:00 PM68 °FPartly sunny.2 mph74%29.74 "Hg31 mi
4:00 PM68 °FSprinkles. Overcast.2 mph80%29.75 "Hg31 mi
3:00 PM71 °FOvercast.3 mph59%29.75 "Hg37 mi
1:00 PM70 °FSprinkles. Overcast.6 mph61%29.75 "Hg37 mi
12:00 PM71 °FOvercast.5 mph60%29.75 "Hg37 mi
11:00 AM73 °FPartly sunny.5 mph60%29.72 "Hg31 mi
10:00 AM71 °FPartly sunny.5 mph62%29.72 "Hg31 mi
9:00 AM71 °FScattered clouds.7 mph62%29.71 "Hg31 mi
8:00 AM67 °FScattered clouds.1 mph72%29.70 "Hg31 mi
7:00 AM64 °FPassing clouds.2 mph80%29.70 "Hg31 mi
6:00 AM62 °FPassing clouds.2 mph85%29.70 "Hg28 mi
5:00 AM63 °FScattered clouds.2 mph78%29.68 "Hg28 mi
4:00 AM65 °FPassing clouds.3 mph65%29.66 "Hg25 mi
3:00 AM67 °FMild.2 mph62%29.64 "HgN/A
2:00 AM70 °FPassing clouds.3 mph53%29.65 "Hg19 mi
1:00 AM71 °FMild.6 mph48%29.65 "HgN/A
12:00 AM72 °FMild.5 mph50%29.65 "HgN/A
Weather by CustomWeather, © 2016

See weather overviewHow to use our weather pages